This demonstration page uses our WeatherBlox Daily Observations layout. Learn more.

Hourly Observations for September 19, 2019

Temp ( °F °C ) Dew Point ( °F °C ) Humidity (%) Winds ( mph kmh ) Pressure ( in mb ) Visibility ( mi km ) Precip ( " mm )
12:15 am 00:15 Clear 59 15 59 15 100 100 E 6 9 30.09 1019 10 16.09344 N/A
12:35 am 00:35 Clear 59 15 59 15 100 100 ESE 6 9 30.09 1019 10 16.09344 N/A
12:55 am 00:55 Clear 63 17 57 14 83 83 E 6 9 30.09 1019 10 16.09344 N/A
1:16 am 01:16 Clear 63 17 57 14 83 83 E 6 9 30.09 1019 10 16.09344 N/A
1:35 am 01:35 Clear 63 17 57 14 83 83 E 6 9 30.09 1019 10 16.09344 N/A
1:56 am 01:56 Clear 61 16 57 14 88 88 E 6 9 30.09 1019 10 16.09344 N/A
2:16 am 02:16 Clear 61 16 55 13 83 83 E 6 9 30.12 1020 10 16.09344 N/A
2:36 am 02:36 Clear 61 16 55 13 83 83 E 6 9 30.12 1020 10 16.09344 N/A
2:55 am 02:55 Clear 61 16 55 13 83 83 E 5 7 30.12 1020 10 16.09344 N/A
3:16 am 03:16 Clear 59 15 55 13 88 88 Calm 30.12 1020 10 16.09344 N/A
3:35 am 03:35 Clear 59 15 55 13 88 88 Calm 30.09 1019 10 16.09344 N/A
3:56 am 03:56 Clear 59 15 55 13 88 88 Calm 30.09 1019 10 16.09344 N/A
4:16 am 04:16 Clear 59 15 55 13 88 88 Calm 30.09 1019 10 16.09344 N/A
4:35 am 04:35 Clear 57 14 55 13 94 94 Calm 30.09 1019 10 16.09344 N/A
4:56 am 04:56 Clear 55 13 54 12 94 94 ENE 3 6 30.09 1019 10 16.09344 N/A
5:15 am 05:15 Clear 55 13 55 13 100 100 E 3 6 30.09 1019 10 16.09344 N/A
5:35 am 05:35 Clear 55 13 55 13 100 100 Calm 30.09 1019 10 16.09344 N/A
5:56 am 05:56 Clear 57 14 55 13 94 94 ESE 3 6 30.09 1019 10 16.09344 N/A
6:15 am 06:15 Clear 57 14 55 13 94 94 Calm 30.09 1019 10 16.09344 N/A
6:35 am 06:35 Clear 54 12 54 12 100 100 Calm 30.12 1020 10 16.09344 N/A
6:56 am 06:56 Clear 54 12 54 12 100 100 Calm 30.12 1020 10 16.09344 N/A
7:15 am 07:15 Clear 54 12 54 12 100 100 Calm 30.12 1020 10 16.09344 N/A
7:36 am 07:36 Sunny 54 12 54 12 100 100 Calm 30.12 1020 10 16.09344 N/A
7:55 am 07:55 Sunny 54 12 54 12 100 100 Calm 30.12 1020 10 16.09344 N/A
8:15 am 08:15 Sunny 54 12 54 12 100 100 Calm 30.12 1020 10 16.09344 N/A
8:35 am 08:35 Sunny 57 14 57 14 100 100 Calm 30.09 1019 10 16.09344 N/A
8:56 am 08:56 Sunny 61 16 59 15 94 94 Calm 30.09 1019 10 16.09344 N/A
9:16 am 09:16 Sunny 64 18 59 15 83 83 Calm 30.12 1020 10 16.09344 N/A
9:36 am 09:36 Sunny 66 19 59 15 78 78 Calm 30.12 1020 10 16.09344 N/A
9:56 am 09:56 Sunny 68 20 61 16 78 78 SE 3 6 30.12 1020 10 16.09344 N/A
10:15 am 10:15 Sunny 70 21 61 16 73 73 ESE 3 6 30.12 1020 10 16.09344 N/A
10:36 am 10:36 Sunny 72 22 61 16 69 69 Calm 30.09 1019 10 16.09344 N/A
10:55 am 10:55 Sunny 72 22 63 17 73 73 Calm 30.15 1021 10 16.09344 N/A
11:15 am 11:15 Sunny 73 23 63 17 69 69 Calm 30.12 1020 10 16.09344 N/A
11:36 am 11:36 Sunny 75 24 64 18 69 69 SE 3 6 30.12 1020 10 16.09344 N/A
11:55 am 11:55 Sunny 77 25 64 18 65 65 Calm 30.09 1019 10 16.09344 N/A
12:16 pm 12:16 Sunny 77 25 66 19 69 69 Calm 30.09 1019 10 16.09344 N/A
12:35 pm 12:35 Sunny 79 26 66 19 65 65 Calm 30.09 1019 10 16.09344 N/A
12:55 pm 12:55 Sunny 81 27 68 20 66 66 Calm 30.09 1019 10 16.09344 N/A
1:16 pm 13:16 Sunny 82 28 68 20 62 62 Calm 30.09 1019 10 16.09344 N/A
1:35 pm 13:35 Sunny 82 28 68 20 62 62 ESE 5 7 30.09 1019 10 16.09344 N/A
1:56 pm 13:56 Sunny 84 29 68 20 58 58 Calm 30.09 1019 10 16.09344 N/A
2:16 pm 14:16 Sunny 84 29 68 20 58 58 E 6 9 30.09 1019 10 16.09344 N/A
2:35 pm 14:35 Sunny 84 29 68 20 58 58 Calm 30.06 1018 10 16.09344 N/A
2:56 pm 14:56 Sunny 84 29 66 19 55 55 Calm 30.06 1018 10 16.09344 N/A
3:15 pm 15:15 Sunny 84 29 66 19 55 55 Calm 30.06 1018 10 16.09344 N/A
3:36 pm 15:36 Sunny 86 30 68 20 55 55 Calm 30.06 1018 10 16.09344 N/A
3:55 pm 15:55 Partly Cloudy 84 29 66 19 55 55 ESE 5 7 30.06 1018 10 16.09344 N/A
4:15 pm 16:15 Sunny 86 30 68 20 55 55 SW 3 6 30.06 1018 10 16.09344 N/A
4:35 pm 16:35 Sunny 86 30 68 20 55 55 SE 5 7 30.03 1017 10 16.09344 N/A
4:55 pm 16:55 Sunny 84 29 66 19 55 55 S 3 6 30.03 1017 10 16.09344 N/A
5:15 pm 17:15 Sunny 82 28 68 20 62 62 Calm 30.03 1017 10 16.09344 N/A
5:35 pm 17:35 Partly Cloudy 82 28 68 20 62 62 SE 3 6 30.06 1018 10 16.09344 N/A
5:56 pm 17:56 Partly Cloudy 82 28 68 20 62 62 Calm 30.03 1017 10 16.09344 N/A
6:15 pm 18:15 Partly Cloudy 82 28 68 20 62 62 Calm 30.03 1017 10 16.09344 N/A
6:35 pm 18:35 Partly Cloudy 82 28 68 20 62 62 S 3 6 30.03 1017 10 16.09344 N/A
6:56 pm 18:56 Partly Cloudy 82 28 68 20 62 62 SSE 3 6 30.03 1017 10 16.09344 N/A
7:15 pm 19:15 Sunny 79 26 66 19 65 65 S 3 6 30.03 1017 10 16.09344 N/A
7:35 pm 19:35 Sunny 77 25 68 20 74 74 Calm 30.03 1017 10 16.09344 N/A
7:55 pm 19:55 Clear 73 23 68 20 83 83 Calm 30.03 1017 10 16.09344 N/A
8:15 pm 20:15 Clear 72 22 68 20 88 88 Calm 30.03 1017 10 16.09344 N/A
8:35 pm 20:35 Clear 68 20 68 20 100 100 SE 5 7 30.09 1019 10 16.09344 N/A
8:55 pm 20:55 Clear 68 20 66 19 94 94 Calm 30.09 1019 10 16.09344 N/A
9:15 pm 21:15 Clear 66 19 66 19 100 100 Calm 30.09 1019 10 16.09344 N/A
9:36 pm 21:36 Clear 64 18 64 18 100 100 Calm 30.09 1019 10 16.09344 N/A
9:55 pm 21:55 Clear 64 18 64 18 100 100 Calm 30.09 1019 10 16.09344 N/A
10:16 pm 22:16 Clear 63 17 63 17 100 100 Calm 30.09 1019 10 16.09344 N/A
10:36 pm 22:36 Clear 64 18 64 18 100 100 Calm 30.09 1019 10 16.09344 N/A
10:56 pm 22:56 Clear 63 17 63 17 100 100 NNW 3 6 30.09 1019 10 16.09344 N/A
11:15 pm 23:15 Clear 63 17 63 17 100 100 Calm 30.09 1019 10 16.09344 N/A
11:36 pm 23:36 Clear 63 17 63 17 100 100 Calm 30.09 1019 10 16.09344 N/A
11:55 pm 23:55 Clear 61 16 61 16 100 100 Calm 30.09 1019 10 16.09344 N/A

Powered by AerisWeather